Mackinac Island, MI

7:42 PM EDT on April 29, 2017 (GMT -0400)
Mackinac Island

Weather History for KMCD - March, 2013

Change the Weather History Date:

Tuesday, March 12, 2013

  Actual Average Record
Temperature  
Mean Temperature 26 °F -  
Max Temperature 33 °F 28 °F 46 °F (2006)
Min Temperature 20 °F 15 °F -7 °F (1984)
Degree Days  
Heating Degree Days 38    
Moisture  
Dew Point 23 °F    
Average Humidity 87    
Maximum Humidity 99    
Minimum Humidity 75    
Precipitation  
Precipitation 0.04 in - - ()
Sea Level Pressure  
Sea Level Pressure 29.66 in    
Wind  
Wind Speed 11 mph (West)    
Max Wind Speed 22 mph    
Max Gust Speed 30 mph    
Visibility 7 miles    
Events Snow    
Averages and records for this station are not official NWS values.
T = Trace of Precipitation, MM = Missing Value Source: NWS Daily Summary

Daily Weather History Graph

Daily Weather History Graph

Search for Another Location

Airport or City:

Trip Planner

Search our weather history database for the weather conditions in past years. The results will help you decide how hot, cold, wet, or windy it might be!

Date:

Astronomy

Mar. 12, 2013 Rise Set
Actual Time 7:56 AM EDT 7:40 PM EDT
Civil Twilight 7:26 AM EDT 8:10 PM EDT
Nautical Twilight 6:52 AM EDT 8:45 PM EDT
Astronomical Twilight 6:17 AM EDT 9:20 PM EDT
Moon 7:57 AM EDT (3/12) 9:01 PM EDT (3/12)
Length of Visible Light 12h 43m
Length of Day
11h 44m
New Moon, 1% of the Moon is Illuminated
Mar 12
New Moon
Mar 19
First Quarter
Mar 27
Full
Apr 3
Last Quarter
Apr 10
New

Hourly Weather History & Observations

Time (EDT) Temp. Windchill Dew Point Humidity Pressure Visibility Wind Dir Wind Speed Gust Speed Precip Events Conditions
12:16 AM 33.6 °F 27.5 °F 32.7 °F 96% 29.40 in 1.0 mi West 6.9 mph - N/A   Overcast
12:36 AM 32.9 °F 28.5 °F 32.0 °F 96% 29.41 in 0.5 mi West 4.6 mph - N/A Snow Light Snow
12:55 AM 32.9 °F 25.3 °F 32.0 °F 96% 29.41 in 2.0 mi West 9.2 mph - N/A Snow Light Snow
1:16 AM 32.0 °F 24.2 °F 31.6 °F 99% 29.42 in 1.5 mi West 9.2 mph - 0.01 in Snow Light Snow
1:36 AM 32.0 °F 24.8 °F 31.5 °F 98% 29.42 in 0.8 mi West 8.1 mph - 0.02 in Snow Light Snow
1:55 AM 32.0 °F 24.2 °F 31.5 °F 98% 29.44 in 1.0 mi West 9.2 mph - 0.03 in Snow Light Snow
2:16 AM 32.0 °F 24.8 °F 31.1 °F 96% 29.46 in 1.2 mi West 8.1 mph - N/A Snow Snow
2:36 AM 32.0 °F 24.2 °F 31.1 °F 96% 29.48 in 1.2 mi West 9.2 mph 17.3 mph N/A Snow Snow
2:55 AM 31.1 °F 20.9 °F 30.6 °F 98% 29.49 in 1.2 mi West 13.8 mph - 0.01 in Snow Light Snow
3:16 AM 30.7 °F 19.6 °F 30.0 °F 97% 29.50 in 2.5 mi West 16.1 mph 20.7 mph N/A Snow Light Snow
3:36 AM 29.8 °F 17.7 °F 29.1 °F 97% 29.52 in 5.0 mi West 18.4 mph 24.2 mph N/A Snow Light Snow
3:55 AM 29.3 °F 18.2 °F 28.4 °F 96% 29.53 in 3.0 mi West 15.0 mph 19.6 mph N/A Snow Light Snow
4:16 AM 28.9 °F 16.5 °F 27.7 °F 95% 29.53 in 10.0 mi West 18.4 mph 24.2 mph N/A   Overcast
4:36 AM 28.4 °F 15.1 °F 26.8 °F 94% 29.54 in 10.0 mi West 20.7 mph 29.9 mph N/A   Overcast
4:55 AM 28.0 °F 14.3 °F 25.7 °F 91% 29.55 in 10.0 mi West 21.9 mph 28.8 mph N/A   Overcast
5:16 AM 27.7 °F 14.1 °F 25.3 °F 91% 29.56 in 10.0 mi West 20.7 mph 28.8 mph N/A   Overcast
5:36 AM 27.5 °F 14.6 °F 24.8 °F 90% 29.57 in 10.0 mi West 18.4 mph 27.6 mph N/A   Overcast
5:55 AM 27.3 °F 15.6 °F 24.8 °F 90% 29.58 in 10.0 mi West 15.0 mph 24.2 mph N/A   Overcast
6:16 AM 27.0 °F 15.2 °F 24.3 °F 90% 29.59 in 10.0 mi West 15.0 mph 20.7 mph N/A   Overcast
6:36 AM 27.0 °F 16.7 °F 24.3 °F 90% 29.60 in 10.0 mi West 11.5 mph 19.6 mph N/A   Overcast
6:55 AM 26.6 °F 15.7 °F 23.9 °F 90% 29.60 in 10.0 mi WNW 12.7 mph 19.6 mph N/A   Overcast
7:16 AM 26.4 °F 15.5 °F 23.7 °F 90% 29.61 in 10.0 mi WNW 12.7 mph 17.3 mph N/A   Overcast
7:36 AM 26.4 °F 16.6 °F 23.9 °F 90% 29.62 in 10.0 mi West 10.4 mph - N/A   Overcast
7:56 AM 26.2 °F 15.8 °F 23.7 °F 90% 29.62 in 10.0 mi West 11.5 mph - N/A   Overcast
8:16 AM 26.4 °F 17.3 °F 23.9 °F 90% 29.63 in 10.0 mi WNW 9.2 mph - N/A   Overcast
8:36 AM 26.2 °F 18.6 °F 23.9 °F 91% 29.64 in 10.0 mi WNW 6.9 mph - N/A   Overcast
8:56 AM 26.2 °F 16.4 °F 23.7 °F 90% 29.65 in 10.0 mi West 10.4 mph - N/A   Overcast
9:16 AM 26.2 °F 15.2 °F 23.9 °F 91% 29.65 in 3.0 mi West 12.7 mph 17.3 mph N/A   Overcast
9:35 AM 26.2 °F 15.2 °F 23.9 °F 91% 29.66 in 3.0 mi West 12.7 mph - N/A   Overcast
9:56 AM 25.7 °F 15.7 °F 23.4 °F 91% 29.67 in 5.0 mi West 10.4 mph 17.3 mph N/A   Overcast
10:16 AM 25.3 °F 15.3 °F 22.1 °F 87% 29.67 in 10.0 mi West 10.4 mph - N/A   Overcast
10:35 AM 25.0 °F 13.1 °F 21.7 °F 87% 29.67 in 7.0 mi West 13.8 mph 21.9 mph N/A Snow Light Snow
10:56 AM 25.3 °F 14.7 °F 22.1 °F 87% 29.67 in 10.0 mi West 11.5 mph 19.6 mph N/A Snow Light Snow
11:16 AM 25.3 °F 15.3 °F 21.7 °F 86% 29.68 in 10.0 mi WNW 10.4 mph 18.4 mph N/A   Overcast
11:35 AM 25.3 °F 14.7 °F 21.7 °F 86% 29.69 in 10.0 mi West 11.5 mph 17.3 mph N/A Snow Light Snow
11:56 AM 25.5 °F 14.3 °F 21.2 °F 84% 29.70 in 10.0 mi West 12.7 mph 18.4 mph N/A   Overcast
12:16 PM 25.9 °F 14.3 °F 21.4 °F 83% 29.70 in 10.0 mi West 13.8 mph - N/A   Overcast
12:35 PM 25.5 °F 15.5 °F 20.5 °F 81% 29.70 in 10.0 mi West 10.4 mph 17.3 mph N/A   Overcast
12:56 PM 25.2 °F 12.9 °F 20.5 °F 82% 29.71 in 3.0 mi West 15.0 mph 19.6 mph N/A Snow Light Snow
1:16 PM 24.6 °F 15.8 °F 21.0 °F 86% 29.72 in 1.2 mi West 8.1 mph - N/A Snow Light Snow
1:35 PM 24.8 °F 14.0 °F 21.4 °F 87% 29.72 in 2.0 mi West 11.5 mph - N/A Snow Light Snow
1:56 PM 25.5 °F 16.2 °F 21.6 °F 85% 29.71 in 10.0 mi West 9.2 mph - N/A   Overcast
2:16 PM 25.7 °F 14.6 °F 20.3 °F 80% 29.71 in 10.0 mi West 12.7 mph 18.4 mph N/A   Overcast
2:36 PM 25.7 °F 15.1 °F 19.8 °F 78% 29.71 in 10.0 mi West 11.5 mph 21.9 mph N/A   Overcast
2:56 PM 25.3 °F 14.7 °F 18.7 °F 76% 29.72 in 10.0 mi West 11.5 mph 19.6 mph N/A Snow Light Snow
3:16 PM 25.2 °F 14.4 °F 18.3 °F 75% 29.72 in 10.0 mi WSW 11.5 mph 19.6 mph N/A   Overcast
3:36 PM 24.8 °F 14.0 °F 18.7 °F 78% 29.73 in 10.0 mi WSW 11.5 mph 19.6 mph N/A   Overcast
3:56 PM 24.8 °F 15.3 °F 18.0 °F 75% 29.73 in 10.0 mi WSW 9.2 mph 16.1 mph N/A   Overcast
4:16 PM 24.8 °F 13.4 °F 19.4 °F 80% 29.74 in 10.0 mi WSW 12.7 mph 17.3 mph N/A   Overcast
4:36 PM 25.2 °F 16.5 °F 19.6 °F 79% 29.74 in 10.0 mi West 8.1 mph 17.3 mph N/A   Overcast
4:56 PM 25.5 °F 14.9 °F 19.2 °F 77% 29.74 in 10.0 mi West 11.5 mph 19.6 mph N/A Snow Light Snow
5:15 PM 25.5 °F 14.3 °F 18.5 °F 75% 29.74 in 10.0 mi West 12.7 mph 19.6 mph N/A   Overcast
5:36 PM 25.3 °F 14.1 °F 18.3 °F 75% 29.75 in 10.0 mi WSW 12.7 mph 17.3 mph N/A   Overcast
5:56 PM 24.4 °F 14.2 °F 19.6 °F 82% 29.75 in 5.0 mi WSW 10.4 mph 18.4 mph N/A Snow Light Snow
6:15 PM 24.4 °F 14.9 °F 20.5 °F 85% 29.75 in 4.0 mi WSW 9.2 mph - N/A Snow Light Snow
6:36 PM 24.3 °F 13.9 °F 21.2 °F 88% 29.76 in 2.0 mi West 10.4 mph 17.3 mph N/A Snow Light Snow
6:56 PM 23.9 °F 12.9 °F 21.2 °F 89% 29.77 in 1.2 mi West 11.5 mph - N/A Snow Light Snow
7:15 PM 23.5 °F 13.7 °F 20.5 °F 88% 29.77 in 1.0 mi West 9.2 mph - N/A Snow Light Snow
7:36 PM 23.4 °F 13.5 °F 19.6 °F 85% 29.78 in 5.0 mi WNW 9.2 mph - N/A   Overcast
7:56 PM 23.0 °F 12.4 °F 18.9 °F 84% 29.78 in 10.0 mi WNW 10.4 mph - N/A   Overcast
8:15 PM 22.8 °F 13.6 °F 18.5 °F 83% 29.79 in 10.0 mi WNW 8.1 mph - N/A   Overcast
8:36 PM 22.6 °F 14.3 °F 18.9 °F 85% 29.80 in 10.0 mi WNW 6.9 mph - N/A   Overcast
8:56 PM 22.5 °F 11.1 °F 17.4 °F 81% 29.80 in 10.0 mi WNW 11.5 mph - N/A   Overcast
9:15 PM 22.1 °F 10.6 °F 16.9 °F 80% 29.80 in 10.0 mi WNW 11.5 mph 17.3 mph N/A   Overcast
9:36 PM 21.7 °F 10.2 °F 16.7 °F 81% 29.81 in 10.0 mi WNW 11.5 mph - N/A   Overcast
9:56 PM 21.2 °F 12.6 °F 16.3 °F 82% 29.81 in 10.0 mi WNW 6.9 mph - N/A   Overcast
10:16 PM 21.0 °F 9.9 °F 16.0 °F 81% 29.81 in 10.0 mi WNW 10.4 mph - N/A   Overcast
10:36 PM 20.8 °F 11.2 °F 16.5 °F 83% 29.81 in 10.0 mi WNW 8.1 mph - N/A   Overcast
10:56 PM 20.5 °F 10.8 °F 16.7 °F 85% 29.81 in 5.0 mi WNW 8.1 mph - N/A Snow Light Snow
11:15 PM 20.3 °F 10.6 °F 16.7 °F 86% 29.80 in 5.0 mi WNW 8.1 mph - N/A   Overcast
11:36 PM 20.3 °F 10.6 °F 16.5 °F 85% 29.80 in 7.0 mi West 8.1 mph - N/A Snow Light Snow
11:56 PM 20.3 °F 12.5 °F 16.5 °F 85% 29.80 in 7.0 mi West 5.8 mph - N/A   Overcast